Location: City of Clear Lake
(43.1347°N, 93.3740°W)
Time: 23:08:48
(UTC+00:00)

Oscar 19 - Visible Passes

Search period start: 13 January 2026 00:00
Search period end: 23 January 2026 00:00
Orbit: 771 x 786 km, 98.9° (Epoch: 13 January)

Date Brightness Start Highest point End Pass type
(mag) Time Alt. Az. Time Alt. Az. Time Alt. Az.
13 Jan 11.2 00:26:17 10° S 00:31:21 60° WSW 00:36:28 10° NNW visible
13 Jan 12.1 12:36:15 10° NNE 12:41:09 41° E 12:46:01 10° S visible
13 Jan 10.6 23:53:16 10° SSE 23:58:22 69° ENE 00:03:31 10° N visible
14 Jan 13.6 01:35:09 10° SW 01:38:04 15° W 01:40:59 10° NW visible
14 Jan 13.4 12:04:04 10° NE 12:07:56 21° E 12:11:46 10° SE visible
15 Jan 12.6 01:00:16 10° SSW 01:04:45 30° W 01:09:17 10° NW visible
15 Jan 10.8 13:09:16 10° NNE 13:14:29 82° ESE 13:19:40 10° SSW visible
16 Jan 11.2 00:26:32 10° S 00:31:37 61° W 00:36:45 10° NNW visible
16 Jan 12.2 12:36:31 10° NNE 12:41:26 41° E 12:46:17 10° SSE visible
16 Jan 10.6 23:53:32 10° SSE 23:58:38 68° ENE 00:03:47 10° N visible
17 Jan 13.6 01:35:23 10° SW 01:38:19 15° W 01:41:16 10° NW visible
17 Jan 13.4 12:04:20 10° NE 12:08:12 21° E 12:12:01 10° SE visible
18 Jan 12.6 01:00:31 10° SSW 01:05:01 30° W 01:09:34 10° NW visible
19 Jan 11.2 00:26:48 10° S 00:31:52 61° WSW 00:37:01 10° NNW visible
19 Jan 12.2 12:36:48 10° NNE 12:41:41 41° E 12:46:32 10° SSE visible
19 Jan 10.6 23:53:48 10° SSE 23:58:54 68° ENE 00:04:03 10° N visible
20 Jan 13.6 01:35:37 10° SW 01:38:35 15° W 01:41:34 10° NW visible
20 Jan 13.4 12:04:37 10° NE 12:08:27 21° E 12:12:16 10° SE visible
21 Jan 12.6 01:00:46 10° SSW 01:05:16 30° W 01:09:50 10° NW visible
22 Jan 11.2 00:27:03 10° S 00:32:08 61° WSW 00:37:16 10° NNW visible
22 Jan 12.2 12:37:04 10° NNE 12:41:57 40° E 12:46:47 10° SSE visible
